Weather History for PHMK - April, 2013

Change the Weather History Date:

Wednesday, April 3, 2013

  Actual Average Record
Temperature  
Mean Temperature 67 °F -  
Max Temperature 75 °F 78 °F - (-1)
Min Temperature 59 °F 65 °F - (-1)
Cooling Degree Days 2    
Growing Degree Days 17 (Base 50)    
Moisture  
Dew Point 56 °F    
Average Humidity 68    
Maximum Humidity 87    
Minimum Humidity 51    
Precipitation  
Precipitation 0.00 in - - ()
Sea Level Pressure  
Sea Level Pressure 30.07 in    
Wind  
Wind Speed 7 mph (NNE)    
Max Wind Speed 15 mph    
Max Gust Speed 21 mph    
Visibility 10 miles    
Events      
Averages and records for this station are not official NWS values.
T = Trace of Precipitation, MM = Missing Value Source: NWS Daily Summary

Daily Weather History Graph

Daily Weather History Graph

Search for Another Location

Airport or City:

Trip Planner

Search our weather history database for the weather conditions in past years. The results will help you decide how hot, cold, wet, or windy it might be!

Date:

Astronomy

Apr. 03, 2013 Rise Set
Actual Time 6:19 AM HST 6:43 PM HST
Civil Twilight 5:56 AM HST 7:06 PM HST
Nautical Twilight 5:30 AM HST 7:32 PM HST
Astronomical Twilight 5:04 AM HST 7:58 PM HST
Moon 1:23 AM HST (4/3) 12:52 PM HST (4/3)
Length of Visible Light 13h 09m
Length of Day
12h 24m
Last Quarter, 42% of the Moon is Illuminated
Apr 3
Last Quarter
Apr 9
New
Apr 18
First Quarter
Apr 25
Full
May 2
Last Quarter

Hourly Weather History & Observations

Time (HST) Temp. Dew Point Humidity Pressure Visibility Wind Dir Wind Speed Gust Speed Precip Events Conditions
12:54 AM 64.0 °F 55.9 °F 75% 30.09 in 10.0 mi NNE 5.8 mph - N/A   Clear
1:54 AM 64.0 °F 55.9 °F 75% 30.07 in 10.0 mi NNE 5.8 mph - N/A   Clear
2:54 AM 63.0 °F 55.0 °F 75% 30.06 in 10.0 mi NNE 5.8 mph - N/A   Clear
3:54 AM 64.0 °F 55.0 °F 73% 30.04 in 10.0 mi NNE 5.8 mph - N/A   Scattered Clouds
4:54 AM 59.0 °F 53.1 °F 81% 30.04 in 10.0 mi Calm Calm - N/A   Clear
5:54 AM 63.0 °F 54.0 °F 72% 30.06 in 10.0 mi NNE 5.8 mph - N/A   Clear
6:54 AM 64.0 °F 54.0 °F 70% 30.07 in 10.0 mi NNE 5.8 mph - N/A   Clear
7:54 AM 70.0 °F 55.9 °F 61% 30.09 in 10.0 mi NE 6.9 mph - N/A   Clear
8:54 AM 72.0 °F 54.0 °F 53% 30.10 in 10.0 mi NE 10.4 mph - N/A   Clear
9:54 AM 75.0 °F 55.9 °F 51% 30.10 in 10.0 mi NE 9.2 mph - N/A   Clear
10:54 AM 73.9 °F 55.9 °F 53% 30.10 in 10.0 mi NNE 9.2 mph - N/A   Scattered Clouds
11:54 AM 73.0 °F 57.0 °F 57% 30.09 in 10.0 mi NNE 11.5 mph 19.6 mph N/A   Scattered Clouds
12:54 PM 73.0 °F 57.0 °F 57% 30.07 in 10.0 mi NNE 9.2 mph 18.4 mph N/A   Mostly Cloudy
1:54 PM 73.9 °F 57.9 °F 57% 30.05 in 10.0 mi North 15.0 mph 20.7 mph N/A   Scattered Clouds
2:54 PM 73.9 °F 57.0 °F 55% 30.03 in 10.0 mi North 13.8 mph 20.7 mph N/A   Partly Cloudy
3:54 PM 73.0 °F 57.9 °F 59% 30.03 in 10.0 mi NNE 11.5 mph 20.7 mph N/A   Mostly Cloudy
4:54 PM 73.0 °F 59.0 °F 61% 30.03 in 10.0 mi NNE 12.7 mph 18.4 mph N/A   Clear
5:54 PM 72.0 °F 57.9 °F 61% 30.04 in 10.0 mi NE 6.9 mph - N/A   Clear
6:54 PM 68.0 °F 57.9 °F 70% 30.06 in 10.0 mi NNE 6.9 mph - N/A   Clear
7:54 PM 66.0 °F 59.0 °F 78% 30.09 in 10.0 mi NNE 5.8 mph - N/A   Clear
8:54 PM 66.0 °F 57.0 °F 73% 30.11 in 10.0 mi NNE 3.5 mph - N/A   Clear
9:54 PM 63.0 °F 57.0 °F 81% 30.12 in 10.0 mi Calm Calm - N/A   Clear
10:54 PM 61.0 °F 57.0 °F 87% 30.12 in 10.0 mi Calm Calm - N/A   Clear
11:54 PM 60.1 °F 55.9 °F 86% 30.11 in 10.0 mi Calm Calm - N/A   Clear